Check out our new BloomSky Weather System.

Active alerts


No alerts


Thunder radar  blitzortung!


Rain radar more information rain snow radar


Visit our other weather sites:

Template documentation
and downloads

And another site



Weather Underground History page Text

Daily Summary for March 24, 2017 Units:  Metric    English   Both
« Previous Day
Next Day »
Daily Weekly Monthly Yearly Custom
  High: Low: Average:
Temperature: -17.8 °C 19.2 °C 22.7 °C
Dew Point: -17.8 °C 17.3 °C 19.1 °C
Humidity: Humidity % 64 % 80 %
Wind Speed: 0 km/h 0 km/h 12.1 km/h
Wind Gust: 0 km/h - -
Wind:- - SSE
Pressure: 0 hPa 1011.4 hPa -
Precipitation: 6.35 mm    
Historical Graphs
 
 
Tabular Data for March 24, 2017
Time Temperature Dew Point Pressure Wind Wind Speed Wind Gust Humidity Rainfall Rate (Hourly)
-17.8 °C -17.8 °C 0 hPa Calm     Humidity % 0 mm
00:00 21.1 °C 18.5 °C 1016.1 hPa SE 11.3 km/h 25.7 km/h 85 % 0 mm
00:05 21.1 °C 18.5 °C 1016.1 hPa SE 11.3 km/h 25.7 km/h 85 % 0 mm
00:10 21.1 °C 18.5 °C 1016.1 hPa SE 14.5 km/h 25.7 km/h 85 % 0 mm
00:15 21.2 °C 18.6 °C 1016.1 hPa SE 14.5 km/h 25.7 km/h 85 % 0 mm
00:20 21.2 °C 18.6 °C 1016.1 hPa SSW 9.7 km/h 25.7 km/h 85 % 0 mm
00:25 21.2 °C 18.6 °C 1016.1 hPa SE 8 km/h 24.1 km/h 85 % 0 mm
00:30 21.2 °C 18.6 °C 1016.1 hPa SE 4.8 km/h 24.1 km/h 85 % 0 mm
00:35 21.2 °C 18.6 °C 1016.1 hPa SE 9.7 km/h 22.5 km/h 85 % 0 mm
00:41 21.2 °C 18.6 °C 1016.1 hPa SSE 12.9 km/h 20.9 km/h 85 % 0 mm
00:46 21.2 °C 18.6 °C 1016.1 hPa SE 6.4 km/h 20.9 km/h 85 % 0 mm
00:51 21.2 °C 18.6 °C 1015.8 hPa ESE 19.3 km/h 19.3 km/h 85 % 0 mm
00:56 21.2 °C 18.8 °C 1016.1 hPa SSE 11.3 km/h 24.1 km/h 86 % 0 mm
01:01 21.2 °C 18.8 °C 1015.8 hPa SE 12.9 km/h 24.1 km/h 86 % 0 mm
01:06 21.2 °C 18.6 °C 1015.8 hPa SE 9.7 km/h 24.1 km/h 85 % 0 mm
01:11 21.2 °C 18.6 °C 1015.5 hPa South 6.4 km/h 24.1 km/h 85 % 0 mm
01:16 21.2 °C 18.8 °C 1015.8 hPa SSE 8 km/h 22.5 km/h 86 % 0 mm
01:21 21.2 °C 18.6 °C 1015.5 hPa ESE 9.7 km/h 24.1 km/h 85 % 0 mm
01:26 21.1 °C 18.7 °C 1015.5 hPa ESE 9.7 km/h 24.1 km/h 86 % 0 mm
01:31 21.2 °C 18.8 °C 1015.5 hPa South 14.5 km/h 27.4 km/h 86 % 0 mm
01:33 21.2 °C 18.8 °C 1015.5 hPa ESE 14.5 km/h 27.4 km/h 86 % 0 mm
01:38 21.2 °C 18.8 °C 1015.5 hPa SE 9.7 km/h 27.4 km/h 86 % 0 mm
01:43 21.3 °C 18.9 °C 1015.5 hPa SSE 6.4 km/h 27.4 km/h 86 % 0 mm
01:48 21.3 °C 18.9 °C 1015.5 hPa SE 6.4 km/h 25.7 km/h 86 % 0 mm
01:53 21.3 °C 18.9 °C 1015.5 hPa South 14.5 km/h 25.7 km/h 86 % 0 mm
01:58 21.4 °C 18.8 °C 1015.1 hPa ESE 17.7 km/h 27.4 km/h 85 % 0 mm
02:03 21.4 °C 18.8 °C 1015.1 hPa South 20.9 km/h 29 km/h 85 % 0 mm
02:08 21.4 °C 18.8 °C 1015.1 hPa SSE 12.9 km/h 29 km/h 85 % 0 mm
02:13 21.4 °C 18.8 °C 1015.1 hPa SSE 11.3 km/h 29 km/h 85 % 0 mm
02:18 21.4 °C 19 °C 1015.1 hPa ESE 20.9 km/h 24.1 km/h 86 % 0 mm
02:23 21.4 °C 18.8 °C 1015.1 hPa East 17.7 km/h 24.1 km/h 85 % 0 mm
02:28 21.4 °C 18.8 °C 1015.5 hPa ESE 11.3 km/h 24.1 km/h 85 % 0 mm
02:34 21.4 °C 18.8 °C 1015.5 hPa South 12.9 km/h 24.1 km/h 85 % 0 mm
02:39 21.4 °C 18.8 °C 1015.1 hPa SSE 14.5 km/h 25.7 km/h 85 % 0 mm
02:40 21.4 °C 18.8 °C 1015.1 hPa ESE 9.7 km/h 25.7 km/h 85 % 0 mm
02:45 21.4 °C 18.8 °C 1015.1 hPa South 11.3 km/h 27.4 km/h 85 % 0 mm
02:50 21.4 °C 19 °C 1015.1 hPa ESE 20.9 km/h 27.4 km/h 86 % 0 mm
02:55 21.4 °C 19 °C 1015.1 hPa East 9.7 km/h 27.4 km/h 86 % 0 mm
03:00 21.4 °C 19 °C 1015.1 hPa SE 11.3 km/h 27.4 km/h 86 % 0 mm
03:05 21.4 °C 19 °C 1014.8 hPa East 11.3 km/h 24.1 km/h 86 % 0 mm
03:10 21.4 °C 19 °C 1014.8 hPa SE 12.9 km/h 24.1 km/h 86 % 0 mm
03:15 21.4 °C 19 °C 1014.4 hPa SE 12.9 km/h 24.1 km/h 86 % 0 mm
03:20 21.3 °C 19 °C 1014.4 hPa SE 11.3 km/h 24.1 km/h 87 % 0 mm
03:25 21.3 °C 19 °C 1014.4 hPa SSE 9.7 km/h 24.1 km/h 87 % 0 mm
03:30 21.3 °C 19 °C 1014.4 hPa SSE 14.5 km/h 24.1 km/h 87 % 0 mm
03:35 21.3 °C 19 °C 1014.1 hPa South 12.9 km/h 27.4 km/h 87 % 0 mm
03:40 21.3 °C 19 °C 1014.4 hPa South 9.7 km/h 27.4 km/h 87 % 0 mm
03:45 21.3 °C 19 °C 1014.1 hPa SE 8 km/h 27.4 km/h 87 % 0 mm
03:50 21.3 °C 19.2 °C 1014.1 hPa South 9.7 km/h 24.1 km/h 88 % 0 mm
03:55 21.3 °C 19.2 °C 1014.1 hPa South 12.9 km/h 24.1 km/h 88 % 0 mm
04:00 21.3 °C 19.2 °C 1014.1 hPa South 9.7 km/h 24.1 km/h 88 % 0 mm
04:02 21.3 °C 19.2 °C 1014.1 hPa South 8 km/h 24.1 km/h 88 % 0 mm
04:07 21.2 °C 19.1 °C 1014.1 hPa SSE 6.4 km/h 22.5 km/h 88 % 0 mm
04:12 21.2 °C 19.1 °C 1014.1 hPa SSE 8 km/h 24.1 km/h 88 % 0 mm
04:17 21.2 °C 19.1 °C 1014.1 hPa SE 11.3 km/h 24.1 km/h 88 % 0 mm
04:22 21.2 °C 19.1 °C 1013.8 hPa South 9.7 km/h 24.1 km/h 88 % 0 mm
04:27 21.2 °C 19.1 °C 1013.8 hPa SE 6.4 km/h 25.7 km/h 88 % 0 mm
04:32 21.2 °C 18.9 °C 1013.8 hPa SSE 3.2 km/h 25.7 km/h 87 % 0 mm
04:37 21.2 °C 18.9 °C 1013.8 hPa SSE 9.7 km/h 25.7 km/h 87 % 0 mm
04:42 21.2 °C 18.9 °C 1013.8 hPa SE 9.7 km/h 17.7 km/h 87 % 0 mm
04:47 21.2 °C 18.9 °C 1013.4 hPa SSE 11.3 km/h 20.9 km/h 87 % 0 mm
04:52 21.2 °C 18.9 °C 1013.8 hPa SSE 8 km/h 20.9 km/h 87 % 0 mm
04:57 21.2 °C 18.9 °C 1013.8 hPa SSE 11.3 km/h 20.9 km/h 87 % 0 mm
05:02 21.2 °C 18.8 °C 1013.4 hPa SE 11.3 km/h 29 km/h 86 % 0 mm
05:07 21.2 °C 18.8 °C 1013.4 hPa ESE 11.3 km/h 29 km/h 86 % 0 mm
05:12 21.2 °C 18.8 °C 1013.4 hPa ESE 19.3 km/h 29 km/h 86 % 0 mm
05:17 21.2 °C 18.8 °C 1013.4 hPa SE 9.7 km/h 22.5 km/h 86 % 0 mm
05:22 21.2 °C 18.8 °C 1013.4 hPa SE 19.3 km/h 22.5 km/h 86 % 0 mm
05:27 21.2 °C 18.6 °C 1013.4 hPa SSE 9.7 km/h 25.7 km/h 85 % 0 mm
05:32 21.2 °C 18.6 °C 1013.4 hPa ESE 17.7 km/h 25.7 km/h 85 % 0 mm
05:37 21.2 °C 18.6 °C 1013.4 hPa SE 11.3 km/h 25.7 km/h 85 % 0 mm
05:42 21.2 °C 18.6 °C 1013.4 hPa ESE 9.7 km/h 22.5 km/h 85 % 0 mm
05:47 21.2 °C 18.6 °C 1013.4 hPa SSE 14.5 km/h 22.5 km/h 85 % 0 mm
05:52 21.2 °C 18.6 °C 1013.4 hPa SE 8 km/h 22.5 km/h 85 % 0 mm
05:57 21.2 °C 18.4 °C 1013.4 hPa ESE 8 km/h 24.1 km/h 84 % 0 mm
06:02 21.2 °C 18.4 °C 1013.4 hPa ESE 11.3 km/h 24.1 km/h 84 % 0 mm
06:07 21.2 °C 18.4 °C 1013.4 hPa SSE 3.2 km/h 24.1 km/h 84 % 0 mm
06:12 21.2 °C 18.2 °C 1013.4 hPa South 9.7 km/h 22.5 km/h 83 % 0 mm
06:18 21.3 °C 18.3 °C 1013.4 hPa SSW 11.3 km/h 22.5 km/h 83 % 0 mm
06:23 21.2 °C 18.2 °C 1013.4 hPa SE 11.3 km/h 22.5 km/h 83 % 0 mm
06:28 21.3 °C 18.3 °C 1013.4 hPa SSE 17.7 km/h 27.4 km/h 83 % 0 mm
06:33 21.4 °C 18.4 °C 1013.4 hPa SE 16.1 km/h 27.4 km/h 83 % 0 mm
06:38 21.4 °C 18.2 °C 1013.8 hPa SSE 16.1 km/h 27.4 km/h 82 % 0 mm
06:43 21.4 °C 18.2 °C 1013.8 hPa SE 3.2 km/h 27.4 km/h 82 % 0 mm
06:48 21.4 °C 18.2 °C 1013.8 hPa South 8 km/h 27.4 km/h 82 % 0 mm
06:53 21.4 °C 18.2 °C 1013.8 hPa ESE 16.1 km/h 27.4 km/h 82 % 0 mm
06:58 21.4 °C 18.2 °C 1013.8 hPa SSE 14.5 km/h 20.9 km/h 82 % 0 mm
07:03 21.5 °C 18.3 °C 1013.8 hPa SSE 6.4 km/h 25.7 km/h 82 % 0 mm
07:08 21.6 °C 18.4 °C 1013.8 hPa SSW 8 km/h 25.7 km/h 82 % 0 mm
07:13 21.6 °C 18.4 °C 1013.8 hPa East 9.7 km/h 25.7 km/h 82 % 0 mm
07:18 21.6 °C 18.4 °C 1013.8 hPa SE 19.3 km/h 22.5 km/h 82 % 0 mm
07:23 21.6 °C 18.4 °C 1013.8 hPa SE 11.3 km/h 27.4 km/h 82 % 0 mm
07:28 21.6 °C 18.4 °C 1014.1 hPa South 9.7 km/h 27.4 km/h 82 % 0 mm
07:33 21.6 °C 18.4 °C 1014.1 hPa SSW 9.7 km/h 27.4 km/h 82 % 0 mm
07:38 21.6 °C 18.4 °C 1014.1 hPa SE 14.5 km/h 22.5 km/h 82 % 0 mm
07:39 21.7 °C 18.5 °C 1014.1 hPa SSE 12.9 km/h 22.5 km/h 82 % 0 mm
07:44 21.7 °C 18.5 °C 1014.1 hPa South 9.7 km/h 22.5 km/h 82 % 0 mm
07:50 21.7 °C 18.7 °C 1014.4 hPa SE 4.8 km/h 22.5 km/h 83 % 0 mm
07:55 21.7 °C 18.7 °C 1014.4 hPa South 8 km/h 24.1 km/h 83 % 0 mm
08:00 21.7 °C 18.7 °C 1014.8 hPa SE 11.3 km/h 27.4 km/h 83 % 0 mm
08:05 21.7 °C 18.7 °C 1014.8 hPa SE 6.4 km/h 27.4 km/h 83 % 0 mm
08:06 21.7 °C 18.7 °C 1014.8 hPa SSW 12.9 km/h 27.4 km/h 83 % 0 mm
08:11 21.8 °C 18.8 °C 1015.1 hPa SSE 3.2 km/h 20.9 km/h 83 % 0 mm
08:16 21.8 °C 18.8 °C 1015.5 hPa SSE 3.2 km/h 19.3 km/h 83 % 0 mm
08:21 21.8 °C 18.8 °C 1015.5 hPa ESE 8 km/h 19.3 km/h 83 % 0 mm
08:26 21.8 °C 18.8 °C 1015.5 hPa SE 16.1 km/h 19.3 km/h 83 % 0 mm
08:31 21.8 °C 18.8 °C 1015.5 hPa SE 9.7 km/h 17.7 km/h 83 % 0 mm
08:36 21.9 °C 18.9 °C 1015.5 hPa South 19.3 km/h 20.9 km/h 83 % 0 mm
08:41 21.9 °C 18.9 °C 1015.8 hPa SE 9.7 km/h 20.9 km/h 83 % 0 mm
08:46 21.9 °C 18.9 °C 1015.8 hPa ESE 8 km/h 20.9 km/h 83 % 0 mm
08:51 22 °C 19 °C 1015.8 hPa SSE 8 km/h 19.3 km/h 83 % 0 mm
08:56 22.1 °C 19.1 °C 1015.8 hPa East 8 km/h 16.1 km/h 83 % 0 mm
09:01 22.2 °C 19.2 °C 1015.8 hPa South 6.4 km/h 16.1 km/h 83 % 0 mm
09:06 22.3 °C 19.3 °C 1015.8 hPa SE 9.7 km/h 16.1 km/h 83 % 0 mm
09:11 22.4 °C 19.2 °C 1015.8 hPa ENE 12.9 km/h 19.3 km/h 82 % 0 mm
09:16 22.8 °C 19.4 °C 1015.8 hPa SSE 8 km/h 19.3 km/h 81 % 0 mm
09:21 22.9 °C 19.3 °C 1016.1 hPa East 16.1 km/h 19.3 km/h 80 % 0 mm
09:26 22.9 °C 19.1 °C 1016.1 hPa SE 6.4 km/h 16.1 km/h 79 % 0 mm
09:31 23 °C 19.2 °C 1016.1 hPa SE 11.3 km/h 19.3 km/h 79 % 0 mm
09:36 23 °C 19.2 °C 1016.1 hPa SE 6.4 km/h 25.7 km/h 79 % 0 mm
09:41 23.1 °C 19.3 °C 1016.1 hPa SSE 8 km/h 25.7 km/h 79 % 0 mm
09:46 23.2 °C 19.1 °C 1016.1 hPa East 6.4 km/h 25.7 km/h 78 % 0 mm
09:51 23.2 °C 19.1 °C 1016.1 hPa SE 16.1 km/h 20.9 km/h 78 % 0 mm
09:56 23.3 °C 19.2 °C 1016.1 hPa SE 11.3 km/h 24.1 km/h 78 % 0 mm
10:01 23.3 °C 19 °C 1016.1 hPa ESE 20.9 km/h 24.1 km/h 77 % 0 mm
10:06 23.5 °C 19.4 °C 1016.1 hPa ESE 4.8 km/h 24.1 km/h 78 % 0 mm
10:11 23.8 °C 19.3 °C 1016.1 hPa SE 19.3 km/h 24.1 km/h 76 % 0 mm
10:16 23.9 °C 19.4 °C 1016.1 hPa ESE 22.5 km/h 24.1 km/h 76 % 0 mm
10:21 23.9 °C 19.2 °C 1016.1 hPa SSE 17.7 km/h 27.4 km/h 75 % 0 mm
10:27 24 °C 19.3 °C 1016.1 hPa SE 17.7 km/h 29 km/h 75 % 0 mm
10:32 24.1 °C 19.4 °C 1016.1 hPa SSE 14.5 km/h 29 km/h 75 % 0 mm
10:37 24.3 °C 19.8 °C 1016.1 hPa SSW 9.7 km/h 29 km/h 76 % 0 mm
10:42 24.3 °C 19.4 °C 1016.1 hPa SE 16.1 km/h 25.7 km/h 74 % 0 mm
10:47 24.2 °C 19.3 °C 1016.1 hPa SSE 6.4 km/h 24.1 km/h 74 % 0 mm
10:52 24.2 °C 19.5 °C 1016.1 hPa South 20.9 km/h 24.1 km/h 75 % 0 mm
10:57 24.4 °C 19.7 °C 1016.1 hPa SE 6.4 km/h 24.1 km/h 75 % 0 mm
11:02 24.8 °C 19.6 °C 1016.1 hPa ESE 12.9 km/h 27.4 km/h 73 % 0 mm
11:07 24.8 °C 19.2 °C 1016.1 hPa ESE 19.3 km/h 32.2 km/h 71 % 0 mm
11:12 24.6 °C 19.2 °C 1016.1 hPa ESE 20.9 km/h 32.2 km/h 72 % 0 mm
11:17 24.6 °C 19.4 °C 1016.1 hPa ESE 11.3 km/h 32.2 km/h 73 % 0 mm
11:22 24.9 °C 19.3 °C 1016.1 hPa ESE 19.3 km/h 25.7 km/h 71 % 0 mm
11:27 24.9 °C 19.3 °C 1016.1 hPa ESE 22.5 km/h 25.7 km/h 71 % 0 mm
11:32 24.9 °C 19.3 °C 1016.1 hPa SE 11.3 km/h 30.6 km/h 71 % 0 mm
11:37 24.9 °C 18.8 °C 1016.1 hPa ESE 11.3 km/h 30.6 km/h 69 % 0 mm
11:42 24.7 °C 18.9 °C 1016.1 hPa SSE 12.9 km/h 32.2 km/h 70 % 0 mm
11:52 24.6 °C 18.8 °C 1016.1 hPa SSE 11.3 km/h 32.2 km/h 70 % 0 mm
11:57 24.6 °C 18.8 °C 1016.1 hPa South 9.7 km/h 29 km/h 70 % 0 mm
12:02 24.6 °C 18.8 °C 1016.1 hPa SSE 19.3 km/h 25.7 km/h 70 % 0 mm
12:07 24.6 °C 18.8 °C 1016.1 hPa SSE 16.1 km/h 25.7 km/h 70 % 0 mm
12:12 24.8 °C 19 °C 1015.8 hPa SSE 11.3 km/h 25.7 km/h 70 % 0 mm
12:22 25.1 °C 18.8 °C 1016.1 hPa ESE 17.7 km/h 25.7 km/h 68 % 0 mm
12:27 25.4 °C 19.3 °C 1015.8 hPa SSW 22.5 km/h 25.7 km/h 69 % 0 mm
12:32 25.8 °C 19.2 °C 1015.8 hPa SSW 12.9 km/h 27.4 km/h 67 % 0 mm
12:37 25.9 °C 18.8 °C 1015.8 hPa SE 17.7 km/h 27.4 km/h 65 % 0 mm
12:42 25.8 °C 19 °C 1015.8 hPa SE 20.9 km/h 27.4 km/h 66 % 0 mm
12:47 25.7 °C 18.6 °C 1015.8 hPa SSE 24.1 km/h 25.7 km/h 65 % 0 mm
12:52 25.8 °C 18.7 °C 1015.8 hPa SSE 12.9 km/h 37 km/h 65 % 0 mm
12:57 25.9 °C 19.1 °C 1015.5 hPa South 9.7 km/h 37 km/h 66 % 0 mm
13:02 26.4 °C 19 °C 1015.5 hPa ESE 14.5 km/h 37 km/h 64 % 0 mm
13:07 26.6 °C 19.2 °C 1015.5 hPa SE 25.7 km/h 30.6 km/h 64 % 0 mm
13:12 26.3 °C 18.9 °C 1015.8 hPa SSE 8 km/h 30.6 km/h 64 % 0 mm
13:17 26.1 °C 19 °C 1015.8 hPa ESE 14.5 km/h 30.6 km/h 65 % 0 mm
13:22 25.9 °C 18.8 °C 1015.8 hPa SSW 16.1 km/h 30.6 km/h 65 % 0 mm
13:27 25.9 °C 18.6 °C 1015.5 hPa SE 12.9 km/h 27.4 km/h 64 % 0 mm
13:32 26 °C 18.9 °C 1015.5 hPa SSE 20.9 km/h 27.4 km/h 65 % 0 mm
13:37 26 °C 18.9 °C 1015.5 hPa SE 11.3 km/h 27.4 km/h 65 % 0 mm
13:42 25.8 °C 19 °C 1015.5 hPa SSE 19.3 km/h 27.4 km/h 66 % 0 mm
13:47 25.6 °C 19.3 °C 1015.5 hPa SE 16.1 km/h 32.2 km/h 68 % 0 mm
13:57 25.5 °C 19.2 °C 1015.1 hPa SSE 16.1 km/h 32.2 km/h 68 % 0 mm
14:02 25.7 °C 19.3 °C 1014.8 hPa SE 19.3 km/h 27.4 km/h 68 % 0 mm
14:07 25.8 °C 19.4 °C 1014.4 hPa SSE 12.9 km/h 27.4 km/h 68 % 0 mm
14:13 26.2 °C 19.3 °C 1014.8 hPa ESE 29 km/h 29 km/h 66 % 0 mm
14:18 26.4 °C 19.3 °C 1014.4 hPa SE 11.3 km/h 38.6 km/h 65 % 0 mm
14:23 26.7 °C 19.8 °C 1014.4 hPa SSE 19.3 km/h 38.6 km/h 66 % 0 mm
14:28 26.6 °C 19.7 °C 1014.4 hPa SE 16.1 km/h 38.6 km/h 66 % 0 mm
14:33 26.4 °C 19.3 °C 1014.1 hPa SSE 9.7 km/h 29 km/h 65 % 0 mm
14:38 26.4 °C 19.5 °C 1014.1 hPa SE 9.7 km/h 29 km/h 66 % 0 mm
14:43 26.2 °C 18.8 °C 1013.8 hPa SE 16.1 km/h 38.6 km/h 64 % 0 mm
14:48 26.3 °C 19.2 °C 1013.8 hPa East 19.3 km/h 38.6 km/h 65 % 0 mm
14:53 26.1 °C 18.8 °C 1013.8 hPa SE 22.5 km/h 38.6 km/h 64 % 0 mm
14:58 26 °C 18.9 °C 1013.4 hPa SE 22.5 km/h 33.8 km/h 65 % 0 mm
15:06 26 °C 18.7 °C 1013.1 hPa South 14.5 km/h 32.2 km/h 64 % 0 mm
15:11 25.8 °C 18.5 °C 1013.1 hPa SE 17.7 km/h 32.2 km/h 64 % 0 mm
15:16 25.7 °C 18.6 °C 1013.1 hPa South 22.5 km/h 32.2 km/h 65 % 0 mm
15:21 25.6 °C 18.8 °C 1013.1 hPa South 20.9 km/h 48.3 km/h 66 % 0 mm
15:26 25.1 °C 19 °C 1013.1 hPa SE 9.7 km/h 48.3 km/h 69 % 0.25 mm
15:31 24.8 °C 18.3 °C 1013.1 hPa South 17.7 km/h 48.3 km/h 67 % 0.25 mm
15:36 24.8 °C 18.3 °C 1012.8 hPa SSE 16.1 km/h 40.2 km/h 67 % 0.25 mm
15:41 24.8 °C 18.5 °C 1012.8 hPa SSW 12.9 km/h 40.2 km/h 68 % 0.25 mm
15:46 24.9 °C 18.8 °C 1012.8 hPa SSE 17.7 km/h 40.2 km/h 69 % 0.25 mm
15:51 24.9 °C 18.6 °C 1012.8 hPa SSE 14.5 km/h 40.2 km/h 68 % 0.25 mm
15:56 25 °C 18.7 °C 1012.8 hPa SE 9.7 km/h 35.4 km/h 68 % 0.25 mm
16:01 24.9 °C 18.6 °C 1012.8 hPa SSE 27.4 km/h 35.4 km/h 68 % 0.25 mm
16:06 24.8 °C 18.5 °C 1012.8 hPa SW 20.9 km/h 35.4 km/h 68 % 0.25 mm
16:11 24.8 °C 18.7 °C 1012.8 hPa SSW 14.5 km/h 32.2 km/h 69 % 0.25 mm
16:16 24.7 °C 19.1 °C 1012.8 hPa SE 6.4 km/h 32.2 km/h 71 % 0.25 mm
16:21 24.2 °C 19.1 °C 1012.8 hPa SW 22.5 km/h 35.4 km/h 73 % 0.25 mm
16:31 23.7 °C 18.8 °C 1012.8 hPa SSE 3.2 km/h 37 km/h 74 % 0 mm
16:36 23.6 °C 19.1 °C 1012.8 hPa SE 20.9 km/h 37 km/h 76 % 0 mm
16:41 23.3 °C 19.5 °C 1012.8 hPa SE 8 km/h 27.4 km/h 79 % 0.25 mm
16:42 23.3 °C 19.5 °C 1012.8 hPa SSE 4.8 km/h 27.4 km/h 79 % 0.25 mm
16:47 23.1 °C 19.7 °C 1012.8 hPa SE 11.3 km/h 27.4 km/h 81 % 0.51 mm
16:52 22.8 °C 19.6 °C 1012.8 hPa SSE 20.9 km/h 27.4 km/h 82 % 0.51 mm
16:57 22.6 °C 19.6 °C 1012.8 hPa SE 14.5 km/h 22.5 km/h 83 % 0.76 mm
17:02 22.3 °C 19.5 °C 1012.4 hPa SSE 9.7 km/h 25.7 km/h 84 % 0.76 mm
17:07 22.3 °C 19.7 °C 1012.4 hPa SE 8 km/h 25.7 km/h 85 % 0.76 mm
17:12 22.4 °C 19.6 °C 1012.4 hPa SE 12.9 km/h 25.7 km/h 84 % 0.76 mm
17:17 22.7 °C 19.5 °C 1012.4 hPa SSE 12.9 km/h 24.1 km/h 82 % 0.76 mm
17:22 22.9 °C 19.5 °C 1012.4 hPa SSE 11.3 km/h 24.1 km/h 81 % 0.76 mm
17:27 23.1 °C 19.7 °C 1012.4 hPa South 14.5 km/h 24.1 km/h 81 % 0.76 mm
17:32 23.2 °C 19.6 °C 1012.4 hPa SE 17.7 km/h 30.6 km/h 80 % 0.76 mm
17:37 23.3 °C 19 °C 1012.1 hPa SSE 19.3 km/h 37 km/h 77 % 0.76 mm
17:42 23.6 °C 19.3 °C 1012.1 hPa SE 9.7 km/h 37 km/h 77 % 0.51 mm
17:47 23.6 °C 19.3 °C 1012.1 hPa SE 22.5 km/h 37 km/h 77 % 0.25 mm
17:52 23.7 °C 19.4 °C 1012.1 hPa ESE 12.9 km/h 30.6 km/h 77 % 0.25 mm
17:57 23.7 °C 19.6 °C 1012.1 hPa South 14.5 km/h 30.6 km/h 78 % 0 mm
18:02 23.7 °C 19.8 °C 1011.7 hPa SSE 6.4 km/h 30.6 km/h 79 % 0 mm
18:07 23.8 °C 19.9 °C 1011.7 hPa ESE 16.1 km/h 30.6 km/h 79 % 0 mm
18:12 23.8 °C 20.1 °C 1011.7 hPa SSE 9.7 km/h 29 km/h 80 % 0 mm
18:17 23.8 °C 20.3 °C 1011.7 hPa SE 16.1 km/h 29 km/h 81 % 0 mm
18:22 23.9 °C 20.4 °C 1011.7 hPa SE 17.7 km/h 27.4 km/h 81 % 0 mm
18:27 23.9 °C 20.4 °C 1011.7 hPa South 12.9 km/h 27.4 km/h 81 % 0 mm
18:32 23.8 °C 20.3 °C 1011.7 hPa ESE 12.9 km/h 27.4 km/h 81 % 0 mm
18:37 23.9 °C 20.4 °C 1011.7 hPa SSE 14.5 km/h 27.4 km/h 81 % 0 mm
18:42 23.9 °C 20.4 °C 1011.4 hPa SSE 8 km/h 27.4 km/h 81 % 0 mm
18:47 24 °C 20.5 °C 1011.7 hPa SE 8 km/h 27.4 km/h 81 % 0 mm
18:52 24 °C 20.5 °C 1011.4 hPa SSE 12.9 km/h 29 km/h 81 % 0 mm
18:57 24.1 °C 20.6 °C 1011.4 hPa SE 9.7 km/h 29 km/h 81 % 0 mm
19:02 24.1 °C 20.6 °C 1011.4 hPa SE 16.1 km/h 29 km/h 81 % 0 mm
19:07 24.1 °C 20.6 °C 1011.4 hPa SSE 3.2 km/h 27.4 km/h 81 % 0 mm
19:12 24 °C 20.5 °C 1011.4 hPa SSE 8 km/h 27.4 km/h 81 % 0 mm
19:17 24 °C 20.5 °C 1011.4 hPa NE 16.1 km/h 29 km/h 81 % 0 mm
19:22 24 °C 20.7 °C 1011.4 hPa SSW 9.7 km/h 29 km/h 82 % 0 mm
19:27 23.9 °C 20.6 °C 1011.7 hPa SSE 9.7 km/h 29 km/h 82 % 0 mm
19:32 23.9 °C 20.6 °C 1011.7 hPa SSE 6.4 km/h 29 km/h 82 % 0 mm
19:37 23.9 °C 20.6 °C 1011.7 hPa SSE 8 km/h 22.5 km/h 82 % 0 mm
19:42 23.9 °C 20.6 °C 1011.7 hPa SW 4.8 km/h 24.1 km/h 82 % 0 mm
19:47 23.9 °C 20.8 °C 1011.7 hPa South 14.5 km/h 27.4 km/h 83 % 0 mm
19:52 23.9 °C 20.8 °C 1012.1 hPa SE 17.7 km/h 27.4 km/h 83 % 0 mm
19:57 23.9 °C 20.8 °C 1012.1 hPa South 11.3 km/h 27.4 km/h 83 % 0 mm
20:02 23.9 °C 20.8 °C 1012.1 hPa South 11.3 km/h 27.4 km/h 83 % 0 mm
20:07 23.9 °C 20.8 °C 1012.1 hPa South 14.5 km/h 27.4 km/h 83 % 0 mm
20:12 23.9 °C 20.8 °C 1012.4 hPa South 12.9 km/h 30.6 km/h 83 % 0 mm
20:17 24 °C 20.9 °C 1012.4 hPa SE 9.7 km/h 30.6 km/h 83 % 0 mm
20:22 23.9 °C 20.8 °C 1012.4 hPa South 19.3 km/h 30.6 km/h 83 % 0 mm
20:27 24 °C 20.9 °C 1012.4 hPa SSW 12.9 km/h 25.7 km/h 83 % 0 mm
20:32 24.1 °C 20.8 °C 1012.1 hPa SSE 16.1 km/h 25.7 km/h 82 % 0 mm
20:37 24.1 °C 20.8 °C 1012.4 hPa SSE 12.9 km/h 25.7 km/h 82 % 0 mm
20:42 24.1 °C 20.8 °C 1012.1 hPa South 16.1 km/h 25.7 km/h 82 % 0 mm
20:47 24.1 °C 20.8 °C 1012.1 hPa SSE 12.9 km/h 25.7 km/h 82 % 0 mm
20:52 24.1 °C 20.8 °C 1012.4 hPa South 11.3 km/h 29 km/h 82 % 0 mm
20:57 24.1 °C 20.8 °C 1012.4 hPa South 9.7 km/h 29 km/h 82 % 0 mm
21:02 24.1 °C 21 °C 1012.4 hPa SE 8 km/h 29 km/h 83 % 0 mm
21:07 24.1 °C 21 °C 1012.4 hPa SSE 4.8 km/h 25.7 km/h 83 % 0 mm
21:12 24.1 °C 21 °C 1012.4 hPa South 16.1 km/h 22.5 km/h 83 % 0 mm
21:17 24.1 °C 21 °C 1012.4 hPa SSE 9.7 km/h 27.4 km/h 83 % 0 mm
21:22 24.1 °C 21.2 °C 1012.8 hPa SSE 9.7 km/h 27.4 km/h 84 % 0 mm
21:28 23.8 °C 21.1 °C 1012.8 hPa South 9.7 km/h 27.4 km/h 85 % 1.02 mm
21:33 23.3 °C 21 °C 1012.8 hPa SSW 8 km/h 25.7 km/h 87 % 1.27 mm
21:38 23.1 °C 21.2 °C 1012.8 hPa South 14.5 km/h 25.7 km/h 89 % 1.27 mm
21:43 22.9 °C 21.2 °C 1012.8 hPa SSW 8 km/h 25.7 km/h 90 % 1.27 mm
21:48 22.8 °C 21.1 °C 1013.1 hPa South 19.3 km/h 20.9 km/h 90 % 1.52 mm
21:53 22.4 °C 20.9 °C 1012.8 hPa SE 16.1 km/h 30.6 km/h 91 % 2.79 mm
21:58 22.3 °C 21.1 °C 1013.1 hPa SSE 8 km/h 30.6 km/h 93 % 5.08 mm
22:08 22 °C 21 °C 1013.1 hPa East 9.7 km/h 22.5 km/h 94 % 5.08 mm
22:13 21.8 °C 20.8 °C 1013.4 hPa SSW 8 km/h 16.1 km/h 94 % 5.08 mm
22:18 21.3 °C 20.1 °C 1013.8 hPa SW 4.8 km/h 16.1 km/h 93 % 5.33 mm
22:23 21.1 °C 19.9 °C 1013.8 hPa SW 12.9 km/h 17.7 km/h 93 % 5.33 mm
22:28 20.4 °C 18.7 °C 1013.4 hPa SSW 1.6 km/h 19.3 km/h 90 % 4.32 mm
22:33 19.8 °C 17.9 °C 1013.4 hPa SSE 6.4 km/h 25.7 km/h 89 % 4.06 mm
22:38 19.6 °C 17.6 °C 1013.1 hPa SSE 8 km/h 32.2 km/h 88 % 4.06 mm
22:43 19.5 °C 17.5 °C 1013.4 hPa SSW 6.4 km/h 32.2 km/h 88 % 4.06 mm
22:48 19.3 °C 17.3 °C 1013.8 hPa SSE 3.2 km/h 32.2 km/h 88 % 3.81 mm
22:53 19.3 °C 17.4 °C 1013.8 hPa SSE 6.4 km/h 22.5 km/h 89 % 2.54 mm
22:58 19.4 °C 17.7 °C 1013.8 hPa SE 1.6 km/h 9.7 km/h 90 % 0.25 mm
23:03 19.3 °C 17.4 °C 1013.8 hPa Calm   8 km/h 89 % 0.25 mm
23:08 19.3 °C 17.4 °C 1013.8 hPa Calm   8 km/h 89 % 0.25 mm
23:13 19.2 °C 17.3 °C 1013.8 hPa Calm   6.4 km/h 89 % 0.25 mm
23:18 19.2 °C 17.5 °C 1013.4 hPa Calm   1.6 km/h 90 % 0 mm
23:23 19.3 °C 17.8 °C 1013.4 hPa Calm   1.6 km/h 91 % 0 mm
23:28 19.6 °C 18.3 °C 1013.4 hPa South 3.2 km/h 4.8 km/h 92 % 0 mm
23:33 19.9 °C 18.7 °C 1013.8 hPa South 3.2 km/h 6.4 km/h 93 % 0 mm
23:38 20.2 °C 19 °C 1013.8 hPa South 4.8 km/h 12.9 km/h 93 % 0 mm
23:43 20.4 °C 19.4 °C 1013.8 hPa SSE 4.8 km/h 12.9 km/h 94 % 0 mm
23:48 20.6 °C 19.6 °C 1013.8 hPa SSW 11.3 km/h 12.9 km/h 94 % 0 mm
23:53 20.8 °C 20 °C 1013.8 hPa SSE 6.4 km/h 12.9 km/h 95 % 0 mm
Spring, Texas: Villages of Bridgestone
Compliments of Weather Underground - 2.75 mb

Script developed by  Jim McMurry - jmcmurry@mwt.net Adapted for the template by  Wim van der Kuil - Leuven-Template.eu

You find our weather info also at:

UK Metoffice

WeatherCloud

Weather Underground

Mid-South Weather Network

AWEKAS

Citizen Weather Observer Program (CWOP)

HAMweather, WeatherForYou, PWS Weather

Equipment we use:

Weather-station
Davis Vantage Vue

Weather-program
Meteohub

Weather-server
Debian 7.9 x86 (Guest)

Provider
DreamHost

Davis Vantage Vue

Meteohub

Debian 7.9 x86 (Guest)

DreamHost